CZ-11 DEB, 41846

Orbit data source: Space-Track

CZ-11 DEB, 41846 is space debris in SSO originally from a launch on Wed, 09 Nov 2016 UTC launched from the Jiuquan Satellite Launch Center, China (JSC). Debris objects in space refer to the collection of defunct objects orbiting the Earth. Examples of debris include non-operational satellites, rocket bodies, and fragments generated from explosions, collisions, or faulty payload assembly.

Loading next visibility...
Identifier
41846, 2016-066F
Orbit
SSO
Country
Flag of CNCN / PRC
Related business
Manufacturer
CALT
Mission
Spacecraft
Bus & Motor
Unknown
Mass
Unknown
Launch date (UTC)
2016-11-09 (9 years ago)
Launch vehicle
Unknown
Launch site
Jiuquan Satellite Launch Center, China (JSC)
Object type
Payload
Rocket body
Debris
Shape & HBR
Unknown
Radar Cross Section
0.050 m², Small (<0.1 m²)

Expand to show TLE details & history
Last TLE update: 9 hours ago

TLE from 9 hours ago
0 CZ-11 DEB
1 41846U 16066F   25258.46655486  .00005053  00000-0  65736-3 0  9991
2 41846  98.4383 341.4743 0315010 227.5682 129.8479 14.52037871465135
Epoch: 2025-09-15T11:11Z
TLE epoch observation values (Epoch: 2025-09-15T11:11:50.339Z)
Latitude
-0.00003°
Longitude
178.84376°
Altitude
869.276 km
Speed
7.34 km/s
True Right ascension
22h 45m 53s
True Declination
0° 00' 00"
Sunlit
Object was in full shadow at epoch
Visualization orbit readout
Latitude
Unknown
Longitude
Unknown
Altitude
Unknown
Speed
Unknown
Apparent Right ascension
Unknown
Apparent Declination
Unknown
Sunlit
N/A
Visualization observer readout
Local Sidereal Time
13:06:25
Azimuth
Unknown
Elevation
Unknown
Doppler factor
Unknown
Orbital elements
Apogee altitude
939.575 km
Perigee altitude
492.623 km
Semi-major axis
7,094.236 km
Eccentricity
0.0315
Inclination
98.4383°
RAAN
341.4743°
Arg. of periapsis
227.5682°
True anomaly
132.55001°
Mean anomaly
129.8479°
Eccentric anomaly
131.20579°
Mean motion
3.63233 °/min
Orbital period
99.11 mins
BSTAR
0.00065736
Loading maneuver chart data...
Computing Atmospheric mass density...
Loading historical data...
Loading historical data...
Loading historical data...
Loading historical data...
Loading historical data...
Loading historical data...
Loading historical data...

Documentation

Showing up to 5 results
|